QPF
0.01 0.01 0.02 0.01 0.01 0.01 0.00 0.00 0.00 0.00 0.00 0.01 0.04 0.07 0.09 0.14 0.21 0.26 0.30 0.33 0.35 0.34 0.31 0.25 0.20 0.16 0.13 0.10 0.07 0.06 0.04 0.03 0.04 0.04 0.03 0.03 0.03 0.03 0.03 0.02 0.01 0.01 0.01
0.00 0.01 0.00 0.00 0.00 0.00 0.00 0.00 0.00 0.00 0.00 0.01 0.02 0.04 0.06 0.08 0.14 0.21 0.27 0.32 0.35 0.37 0.36 0.29 0.22 0.16 0.12 0.10 0.06 0.04 0.03 0.02 0.02 0.01 0.01 0.01 0.01 0.01 0.00 0.00 0.00 0.01 0.00
0.00 0.00 0.00 0.00 0.00 0.00 0.00 0.00 0.00 0.00 0.00 0.01 0.01 0.02 0.03 0.05 0.06 0.09 0.14 0.20 0.23 0.24 0.24 0.22 0.18 0.15 0.13 0.10 0.09 0.06 0.04 0.02 0.01 0.01 0.00 0.00 0.00 0.00 0.00 0.00 0.00 0.00 0.00
0.00 0.00 0.00 0.00 0.00 0.00 0.00 0.00 0.00 0.00 0.00 0.00 0.01 0.01 0.02 0.03 0.04 0.06 0.08 0.10 0.12 0.14 0.16 0.15 0.15 0.13 0.12 0.10 0.08 0.07 0.07 0.04 0.02 0.01 0.00 0.00 0.00 0.00 0.00 0.00 0.00 0.00 0.00
0.00 0.00 0.00 0.00 0.00 0.00 0.00 0.00 0.00 0.00 0.00 0.00 0.00 0.00 0.00 0.01 0.02 0.02 0.03 0.04 0.05 0.07 0.10 0.11 0.11 0.12 0.11 0.09 0.08 0.07 0.07 0.06 0.03 0.02 0.01 0.01 0.00 0.00 0.00 0.00 0.00 0.00 0.00
0.00 0.00 0.00 0.00 0.00 0.00 0.00 0.00 0.00 0.00 0.00 0.00 0.00 0.00 0.00 0.00 0.00 0.01 0.01 0.01 0.02 0.03 0.05 0.07 0.09 0.11 0.11 0.11 0.10 0.08 0.06 0.06 0.06 0.04 0.02 0.01 0.00 0.00 0.00 0.00 0.00 0.00 0.00
0.00 0.00 0.00 0.00 0.00 0.00 0.00 0.00 0.00 0.00 0.00 0.00 0.00 0.00 0.00 0.00 0.00 0.00 0.00 0.00 0.00 0.01 0.01 0.02 0.04 0.07 0.10 0.12 0.13 0.12 0.09 0.08 0.08 0.06 0.04 0.02 0.01 0.00 0.00 0.00 0.00 0.00 0.00
0.00 0.00 0.00 0.00 0.00 0.00 0.00 0.00 0.00 0.00 0.00 0.00 0.00 0.00 0.00 0.00 0.00 0.00 0.00 0.00 0.00 0.00 0.00 0.01 0.01 0.02 0.05 0.09 0.13 0.15 0.14 0.13 0.09 0.07 0.07 0.05 0.02 0.01 0.00 0.00 0.00 0.00 0.00
0.00 0.00 0.00 0.00 0.00 0.00 0.00 0.00 0.00 0.00 0.00 0.00 0.00 0.00 0.00 0.00 0.00 0.00 0.00 0.00 0.00 0.00 0.00 0.00 0.00 0.01 0.02 0.04 0.08 0.13 0.16 0.19 0.18 0.13 0.09 0.07 0.05 0.02 0.01 0.00 0.00 0.00 0.00
0.00 0.00 0.00 0.00 0.00 0.00 0.00 0.00 0.00 0.00 0.00 0.00 0.00 0.00 0.00 0.00 0.00 0.00 0.00 0.00 0.00 0.00 0.00 0.00 0.00 0.00 0.00 0.01 0.03 0.07 0.14 0.21 0.24 0.24 0.19 0.13 0.08 0.05 0.03 0.01 0.00 0.00 0.00
0.00 0.00 0.00 0.00 0.00 0.00 0.00 0.00 0.00 0.00 0.00 0.00 0.00 0.00 0.00 0.00 0.00 0.00 0.00 0.00 0.00 0.00 0.00 0.00 0.00 0.00 0.00 0.00 0.01 0.03 0.07 0.16 0.26 0.33 0.32 0.26 0.18 0.12 0.08 0.04 0.02 0.01 0.01
0.00 0.00 0.00 0.00 0.00 0.00 0.00 0.00 0.00 0.00 0.00 0.00 0.00 0.00 0.00 0.00 0.00 0.00 0.00 0.00 0.00 0.00 0.00 0.00 0.00 0.00 0.00 0.00 0.00 0.01 0.03 0.08 0.16 0.31 0.43 0.42 0.34 0.25 0.16 0.10 0.06 0.03 0.01
0.00 0.00 0.00 0.00 0.00 0.00 0.00 0.00 0.00 0.00 0.00 0.00 0.00 0.00 0.00 0.00 0.00 0.00 0.00 0.00 0.00 0.00 0.00 0.00 0.00 0.00 0.00 0.00 0.00 0.00 0.01 0.03 0.07 0.15 0.30 0.47 0.51 0.41 0.30 0.20 0.12 0.07 0.04
0.00 0.00 0.00 0.00 0.00 0.00 0.00 0.00 0.00 0.00 0.00 0.00 0.00 0.00 0.00 0.00 0.00 0.00 0.00 0.00 0.00 0.00 0.00 0.00 0.00 0.00 0.00 0.00 0.00 0.00 0.00 0.01 0.02 0.06 0.12 0.25 0.46 0.56 0.48 0.34 0.24 0.17 0.11
0.00 0.00 0.00 0.00 0.00 0.00 0.00 0.00 0.00 0.00 0.00 0.00 0.00 0.00 0.00 0.00 0.00 0.00 0.00 0.01 0.01 0.01 0.01 0.02 0.01 0.01 0.00 0.00 0.00 0.01 0.01 0.01 0.01 0.02 0.05 0.09 0.20 0.42 0.59 0.55 0.39 0.26 0.17
0.00 0.00 0.00 0.00 0.00 0.00 0.00 0.00 0.00 0.00 0.00 0.00 0.00 0.00 0.00 0.00 0.01 0.01 0.01 0.01 0.02 0.03 0.03 0.03 0.03 0.02 0.01 0.00 0.00 0.01 0.01 0.02 0.02 0.02 0.02 0.04 0.09 0.17 0.33 0.48 0.52 0.45 0.29
0.00 0.00 0.00 0.00 0.00 0.00 0.00 0.00 0.00 0.00 0.00 0.00 0.00 0.01 0.01 0.01 0.01 0.01 0.02 0.03 0.04 0.05 0.06 0.06 0.06 0.05 0.04 0.02 0.01 0.00 0.02 0.03 0.03 0.03 0.03 0.02 0.04 0.09 0.15 0.24 0.35 0.40 0.35
0.00 0.00 0.00 0.00 0.00 0.00 0.00 0.00 0.00 0.00 0.00 0.00 0.01 0.01 0.01 0.02 0.02 0.03 0.03 0.04 0.06 0.07 0.08 0.08 0.08 0.09 0.07 0.04 0.01 0.01 0.01 0.04 0.05 0.05 0.04 0.03 0.03 0.04 0.09 0.16 0.21 0.25 0.25
0.00 0.00 0.00 0.00 0.00 0.00 0.00 0.00 0.00 0.00 0.00 0.01 0.01 0.02 0.02 0.03 0.03 0.04 0.05 0.06 0.07 0.08 0.09 0.10 0.10 0.10 0.10 0.06 0.02 0.01 0.03 0.06 0.06 0.05 0.04 0.04 0.04 0.02 0.03 0.08 0.16 0.19 0.19
0.00 0.00 0.00 0.00 0.00 0.00 0.00 0.00 0.00 0.00 0.01 0.01 0.02 0.02 0.03 0.04 0.05 0.06 0.06 0.08 0.09 0.10 0.10 0.11 0.11 0.11 0.12 0.08 0.03 0.02 0.05 0.05 0.05 0.06 0.05 0.02 0.02 0.02 0.01 0.03 0.09 0.14 0.17
0.00 0.00 0.00 0.00 0.00 0.00 0.00 0.00 0.01 0.01 0.01 0.02 0.02 0.02 0.03 0.05 0.05 0.06 0.07 0.09 0.10 0.10 0.10 0.10 0.11 0.11 0.11 0.09 0.04 0.03 0.03 0.04 0.05 0.04 0.05 0.04 0.00 0.00 0.00 0.02 0.05 0.08 0.13
0.00 0.00 0.00 0.00 0.00 0.00 0.00 0.01 0.01 0.01 0.01 0.02 0.02 0.02 0.03 0.04 0.04 0.07 0.07 0.08 0.09 0.09 0.09 0.09 0.10 0.11 0.09 0.06 0.04 0.02 0.02 0.02 0.04 0.05 0.05 0.05 0.01 0.00 0.00 0.01 0.03 0.05 0.08
0.00 0.00 0.00 0.00 0.00 0.00 0.00 0.01 0.01 0.01 0.02 0.02 0.02 0.02 0.03 0.03 0.05 0.06 0.06 0.07 0.09 0.09 0.10 0.10 0.10 0.10 0.10 0.07 0.02 0.01 0.01 0.00 0.02 0.04 0.04 0.03 0.01 0.01 0.01 0.01 0.02 0.05 0.07
0.00 0.00 0.00 0.00 0.00 0.00 0.00 0.01 0.01 0.02 0.02 0.03 0.02 0.02 0.03 0.03 0.03 0.05 0.06 0.08 0.09 0.11 0.12 0.10 0.09 0.10 0.09 0.08 0.06 0.03 0.02 0.01 0.01 0.02 0.02 0.00 0.00 0.02 0.02 0.02 0.02 0.05 0.08
0.00 0.00 0.00 0.00 0.00 0.00 0.00 0.01 0.01 0.02 0.03 0.03 0.02 0.02 0.03 0.03 0.03 0.04 0.05 0.05 0.07 0.07 0.09 0.10 0.10 0.09 0.08 0.07 0.04 0.05 0.05 0.04 0.03 0.04 0.05 0.03 0.02 0.03 0.04 0.04 0.05 0.07 0.11
0.00 0.00 0.00 0.00 0.00 0.00 0.01 0.01 0.02 0.02 0.03 0.03 0.02 0.02 0.02 0.03 0.03 0.04 0.04 0.04 0.03 0.02 0.02 0.04 0.05 0.06 0.05 0.03 0.01 0.01 0.01 0.02 0.01 0.03 0.05 0.04 0.04 0.04 0.06 0.07 0.09 0.12 0.15
MSLP
1015.82 1015.69 1015.51 1015.28 1015.00 1014.68 1014.35 1014.01 1013.70 1013.40 1013.11 1012.83 1012.55 1012.25 1011.92 1011.58 1011.24 1010.92 1010.63 1010.39 1010.22 1010.12 1010.08 1010.08 1010.12 1010.18 1010.24 1010.31 1010.37 1010.44 1010.50 1010.57 1010.65 1010.72 1010.78 1010.81 1010.82 1010.80 1010.75 1010.67 1010.59 1010.52 1010.50
1015.59 1015.47 1015.29 1015.07 1014.79 1014.49 1014.17 1013.87 1013.58 1013.31 1013.06 1012.82 1012.56 1012.28 1011.97 1011.64 1011.30 1010.98 1010.70 1010.49 1010.34 1010.27 1010.27 1010.31 1010.36 1010.42 1010.46 1010.47 1010.46 1010.43 1010.40 1010.38 1010.38 1010.40 1010.43 1010.46 1010.48 1010.48 1010.45 1010.38 1010.29 1010.20 1010.13
1015.19 1015.08 1014.93 1014.74 1014.51 1014.24 1013.97 1013.71 1013.47 1013.25 1013.04 1012.84 1012.61 1012.35 1012.06 1011.73 1011.40 1011.09 1010.82 1010.63 1010.52 1010.50 1010.53 1010.61 1010.68 1010.74 1010.75 1010.70 1010.61 1010.49 1010.36 1010.24 1010.16 1010.11 1010.11 1010.13 1010.17 1010.19 1010.19 1010.16 1010.10 1010.01 1009.92
1014.76 1014.67 1014.56 1014.41 1014.23 1014.02 1013.80 1013.60 1013.40 1013.23 1013.07 1012.89 1012.69 1012.44 1012.15 1011.83 1011.51 1011.20 1010.96 1010.79 1010.71 1010.73 1010.80 1010.91 1011.00 1011.05 1011.04 1010.94 1010.78 1010.57 1010.34 1010.13 1009.96 1009.86 1009.82 1009.83 1009.87 1009.93 1009.97 1009.99 1009.96 1009.91 1009.83
1014.40 1014.35 1014.27 1014.17 1014.03 1013.87 1013.70 1013.53 1013.38 1013.24 1013.10 1012.94 1012.75 1012.52 1012.24 1011.92 1011.60 1011.30 1011.06 1010.91 1010.86 1010.89 1010.99 1011.12 1011.22 1011.27 1011.24 1011.10 1010.89 1010.61 1010.31 1010.03 1009.79 1009.63 1009.55 1009.55 1009.59 1009.67 1009.75 1009.81 1009.84 1009.83 1009.79
1014.20 1014.16 1014.12 1014.04 1013.93 1013.79 1013.64 1013.50 1013.36 1013.23 1013.10 1012.95 1012.77 1012.53 1012.26 1011.94 1011.62 1011.32 1011.09 1010.94 1010.89 1010.93 1011.04 1011.16 1011.27 1011.32 1011.27 1011.12 1010.88 1010.57 1010.23 1009.90 1009.63 1009.43 1009.32 1009.29 1009.33 1009.41 1009.51 1009.59 1009.66 1009.69 1009.70
1014.15 1014.13 1014.09 1014.02 1013.91 1013.77 1013.61 1013.45 1013.30 1013.17 1013.03 1012.88 1012.69 1012.46 1012.18 1011.86 1011.54 1011.24 1011.00 1010.84 1010.77 1010.79 1010.88 1010.99 1011.09 1011.13 1011.08 1010.94 1010.70 1010.40 1010.07 1009.74 1009.46 1009.24 1009.11 1009.06 1009.08 1009.14 1009.22 1009.31 1009.39 1009.45 1009.50
1014.22 1014.20 1014.16 1014.07 1013.93 1013.76 1013.56 1013.37 1013.19 1013.03 1012.87 1012.70 1012.51 1012.27 1012.00 1011.68 1011.35 1011.04 1010.78 1010.59 1010.48 1010.46 1010.51 1010.59 1010.67 1010.70 1010.66 1010.54 1010.35 1010.09 1009.80 1009.52 1009.26 1009.06 1008.93 1008.86 1008.84 1008.86 1008.90 1008.96 1009.02 1009.08 1009.15
1014.34 1014.31 1014.24 1014.12 1013.94 1013.71 1013.47 1013.23 1013.01 1012.81 1012.62 1012.44 1012.24 1012.00 1011.72 1011.40 1011.07 1010.74 1010.44 1010.21 1010.05 1009.97 1009.96 1009.99 1010.03 1010.05 1010.03 1009.95 1009.82 1009.64 1009.43 1009.22 1009.03 1008.87 1008.75 1008.66 1008.61 1008.58 1008.56 1008.56 1008.57 1008.60 1008.67
1014.45 1014.40 1014.30 1014.13 1013.90 1013.62 1013.32 1013.03 1012.77 1012.53 1012.32 1012.13 1011.92 1011.68 1011.40 1011.08 1010.73 1010.37 1010.04 1009.75 1009.52 1009.37 1009.29 1009.25 1009.25 1009.25 1009.24 1009.21 1009.14 1009.05 1008.95 1008.84 1008.74 1008.64 1008.56 1008.47 1008.39 1008.31 1008.22 1008.15 1008.09 1008.08 1008.13
1014.49 1014.42 1014.29 1014.07 1013.80 1013.48 1013.14 1012.81 1012.51 1012.26 1012.03 1011.82 1011.60 1011.36 1011.07 1010.74 1010.37 1009.98 1009.61 1009.26 1008.96 1008.73 1008.57 1008.46 1008.40 1008.38 1008.37 1008.36 1008.36 1008.36 1008.36 1008.36 1008.36 1008.35 1008.32 1008.26 1008.17 1008.05 1007.91 1007.77 1007.65 1007.59 1007.61
1014.46 1014.37 1014.20 1013.95 1013.64 1013.29 1012.93 1012.59 1012.28 1012.01 1011.77 1011.55 1011.33 1011.07 1010.78 1010.43 1010.04 1009.62 1009.19 1008.79 1008.42 1008.11 1007.87 1007.69 1007.57 1007.50 1007.48 1007.49 1007.53 1007.60 1007.68 1007.78 1007.88 1007.96 1008.00 1008.00 1007.93 1007.81 1007.64 1007.46 1007.30 1007.19 1007.17
1014.35 1014.24 1014.04 1013.77 1013.44 1013.08 1012.72 1012.38 1012.07 1011.81 1011.57 1011.34 1011.11 1010.84 1010.52 1010.15 1009.73 1009.27 1008.81 1008.35 1007.93 1007.55 1007.24 1006.99 1006.80 1006.68 1006.62 1006.61 1006.67 1006.77 1006.92 1007.10 1007.29 1007.46 1007.59 1007.66 1007.65 1007.56 1007.41 1007.23 1007.04 1006.91 1006.87
1014.21 1014.06 1013.84 1013.55 1013.21 1012.86 1012.51 1012.18 1011.89 1011.64 1011.40 1011.17 1010.91 1010.62 1010.27 1009.87 1009.42 1008.93 1008.43 1007.94 1007.47 1007.05 1006.68 1006.36 1006.12 1005.93 1005.82 1005.78 1005.81 1005.92 1006.10 1006.32 1006.58 1006.84 1007.06 1007.22 1007.30 1007.29 1007.19 1007.04 1006.88 1006.75 1006.70
1014.03 1013.84 1013.59 1013.29 1012.95 1012.60 1012.27 1011.97 1011.70 1011.45 1011.22 1010.98 1010.70 1010.37 1009.99 1009.55 1009.06 1008.55 1008.02 1007.51 1007.02 1006.57 1006.16 1005.80 1005.50 1005.26 1005.09 1004.99 1004.98 1005.06 1005.23 1005.48 1005.78 1006.11 1006.42 1006.68 1006.87 1006.96 1006.96 1006.89 1006.77 1006.67 1006.62
1013.84 1013.60 1013.31 1012.98 1012.64 1012.30 1011.98 1011.70 1011.45 1011.22 1010.98 1010.71 1010.41 1010.04 1009.61 1009.13 1008.61 1008.08 1007.54 1007.02 1006.52 1006.07 1005.65 1005.27 1004.94 1004.65 1004.42 1004.26 1004.20 1004.23 1004.37 1004.62 1004.94 1005.32 1005.71 1006.07 1006.37 1006.58 1006.69 1006.71 1006.67 1006.61 1006.58
1013.62 1013.33 1012.99 1012.62 1012.26 1011.92 1011.62 1011.35 1011.11 1010.88 1010.63 1010.34 1010.00 1009.59 1009.11 1008.59 1008.04 1007.48 1006.94 1006.43 1005.95 1005.51 1005.11 1004.73 1004.39 1004.07 1003.81 1003.60 1003.48 1003.47 1003.57 1003.80 1004.13 1004.54 1004.99 1005.44 1005.84 1006.15 1006.37 1006.48 1006.52 1006.51 1006.50
1013.36 1013.01 1012.61 1012.21 1011.82 1011.48 1011.17 1010.91 1010.67 1010.43 1010.17 1009.85 1009.46 1009.00 1008.48 1007.92 1007.34 1006.76 1006.22 1005.73 1005.28 1004.88 1004.51 1004.17 1003.84 1003.53 1003.26 1003.03 1002.87 1002.82 1002.89 1003.09 1003.42 1003.84 1004.33 1004.83 1005.30 1005.70 1006.00 1006.19 1006.29 1006.32 1006.33
1013.06 1012.65 1012.20 1011.75 1011.34 1010.98 1010.67 1010.40 1010.16 1009.91 1009.61 1009.26 1008.83 1008.32 1007.75 1007.15 1006.54 1005.95 1005.42 1004.95 1004.54 1004.19 1003.87 1003.58 1003.31 1003.03 1002.78 1002.55 1002.39 1002.32 1002.37 1002.55 1002.86 1003.28 1003.77 1004.29 1004.80 1005.24 1005.59 1005.82 1005.96 1006.02 1006.04
1012.72 1012.25 1011.76 1011.28 1010.84 1010.47 1010.15 1009.88 1009.62 1009.35 1009.03 1008.64 1008.16 1007.60 1006.99 1006.34 1005.70 1005.11 1004.58 1004.13 1003.77 1003.47 1003.22 1003.01 1002.80 1002.59 1002.38 1002.20 1002.06 1001.99 1002.03 1002.20 1002.48 1002.88 1003.35 1003.86 1004.35 1004.79 1005.14 1005.39 1005.53 1005.60 1005.62
1012.36 1011.85 1011.33 1010.83 1010.39 1010.00 1009.68 1009.40 1009.12 1008.83 1008.47 1008.04 1007.51 1006.91 1006.25 1005.56 1004.89 1004.29 1003.76 1003.34 1003.02 1002.78 1002.60 1002.47 1002.34 1002.21 1002.08 1001.95 1001.85 1001.82 1001.86 1002.01 1002.27 1002.62 1003.05 1003.50 1003.95 1004.35 1004.67 1004.89 1005.02 1005.08 1005.10
1012.00 1011.49 1010.96 1010.46 1010.01 1009.63 1009.30 1009.01 1008.72 1008.39 1008.00 1007.52 1006.94 1006.28 1005.57 1004.85 1004.16 1003.54 1003.02 1002.62 1002.34 1002.16 1002.05 1001.99 1001.95 1001.91 1001.86 1001.80 1001.76 1001.75 1001.81 1001.94 1002.16 1002.46 1002.81 1003.19 1003.57 1003.89 1004.15 1004.32 1004.42 1004.46 1004.49
1011.68 1011.17 1010.66 1010.18 1009.75 1009.38 1009.05 1008.75 1008.43 1008.06 1007.62 1007.08 1006.45 1005.74 1004.99 1004.23 1003.51 1002.89 1002.38 1002.00 1001.76 1001.63 1001.59 1001.61 1001.64 1001.68 1001.70 1001.71 1001.71 1001.73 1001.79 1001.90 1002.07 1002.31 1002.58 1002.87 1003.15 1003.39 1003.57 1003.68 1003.75 1003.78 1003.82
1011.40 1010.92 1010.45 1010.00 1009.60 1009.24 1008.92 1008.59 1008.24 1007.83 1007.32 1006.73 1006.03 1005.27 1004.47 1003.68 1002.95 1002.32 1001.83 1001.48 1001.28 1001.20 1001.22 1001.30 1001.40 1001.50 1001.57 1001.62 1001.66 1001.69 1001.73 1001.81 1001.93 1002.09 1002.27 1002.47 1002.65 1002.81 1002.92 1002.99 1003.03 1003.07 1003.13
1011.15 1010.72 1010.29 1009.90 1009.53 1009.19 1008.86 1008.51 1008.11 1007.64 1007.06 1006.39 1005.63 1004.81 1003.97 1003.16 1002.43 1001.82 1001.35 1001.04 1000.88 1000.85 1000.93 1001.05 1001.20 1001.34 1001.45 1001.51 1001.55 1001.57 1001.58 1001.61 1001.67 1001.75 1001.85 1001.96 1002.07 1002.16 1002.22 1002.26 1002.29 1002.34 1002.45
1010.91 1010.53 1010.17 1009.82 1009.49 1009.17 1008.83 1008.44 1007.99 1007.44 1006.79 1006.04 1005.21 1004.34 1003.46 1002.64 1001.92 1001.34 1000.91 1000.66 1000.55 1000.58 1000.69 1000.86 1001.03 1001.18 1001.29 1001.35 1001.36 1001.35 1001.31 1001.28 1001.27 1001.29 1001.32 1001.37 1001.42 1001.47 1001.51 1001.54 1001.59 1001.67 1001.82
Thickness
5730 5731 5730 5729 5727 5724 5721 5718 5716 5716 5716 5717 5716 5715 5716 5716 5715 5714 5711 5708 5706 5706 5705 5707 5708 5709 5711 5715 5718 5719 5719 5719 5723 5721 5723 5728 5732 5734 5734 5735 5738 5740 5740
5723 5722 5721 5720 5718 5714 5711 5710 5707 5706 5705 5704 5704 5704 5704 5705 5704 5702 5700 5699 5699 5699 5700 5700 5700 5701 5704 5708 5709 5710 5712 5716 5718 5715 5716 5718 5723 5727 5732 5734 5734 5736 5739
5716 5714 5713 5712 5710 5707 5704 5702 5698 5696 5694 5693 5695 5695 5695 5696 5694 5691 5691 5689 5690 5690 5692 5692 5695 5696 5696 5698 5700 5702 5702 5705 5710 5712 5711 5711 5715 5725 5728 5729 5732 5733 5735
5712 5710 5708 5705 5703 5701 5699 5695 5691 5687 5684 5683 5682 5680 5679 5679 5679 5679 5680 5680 5681 5682 5683 5684 5686 5687 5688 5690 5693 5698 5697 5697 5701 5706 5707 5709 5713 5713 5719 5722 5728 5729 5730
5708 5704 5702 5700 5697 5695 5692 5688 5683 5678 5675 5671 5669 5668 5669 5669 5670 5669 5669 5669 5671 5671 5672 5674 5675 5676 5678 5680 5684 5688 5690 5692 5694 5699 5702 5703 5704 5705 5708 5714 5720 5724 5728
5704 5701 5698 5695 5691 5688 5685 5680 5674 5669 5666 5663 5660 5657 5655 5655 5655 5654 5656 5658 5660 5660 5661 5662 5663 5665 5667 5669 5673 5677 5681 5684 5688 5691 5697 5698 5700 5702 5705 5707 5711 5717 5724
5700 5695 5691 5687 5683 5680 5675 5671 5666 5661 5657 5654 5652 5649 5647 5645 5645 5645 5647 5647 5649 5650 5650 5651 5651 5653 5655 5658 5661 5666 5670 5675 5678 5682 5687 5693 5698 5703 5704 5705 5709 5711 5718
5695 5689 5684 5679 5675 5671 5666 5661 5656 5651 5648 5646 5643 5641 5639 5640 5641 5640 5638 5638 5638 5639 5639 5638 5639 5641 5644 5647 5649 5653 5659 5664 5668 5675 5679 5683 5690 5697 5699 5701 5703 5704 5710
5686 5682 5677 5672 5667 5661 5656 5651 5646 5642 5639 5637 5635 5634 5633 5631 5630 5629 5629 5631 5630 5629 5629 5627 5627 5629 5631 5634 5637 5641 5646 5651 5657 5663 5668 5674 5682 5688 5693 5698 5700 5701 5703
5679 5675 5669 5663 5658 5653 5648 5644 5638 5634 5632 5630 5629 5629 5626 5623 5622 5621 5620 5619 5618 5617 5616 5616 5616 5617 5619 5620 5623 5629 5634 5637 5643 5649 5655 5663 5671 5679 5685 5690 5694 5698 5700
5672 5666 5661 5656 5650 5645 5640 5635 5631 5628 5626 5623 5621 5618 5616 5614 5612 5610 5609 5608 5606 5604 5604 5604 5604 5605 5606 5608 5610 5615 5620 5625 5630 5636 5642 5650 5657 5665 5673 5680 5685 5690 5693
5664 5658 5653 5647 5642 5637 5632 5627 5624 5621 5618 5616 5612 5609 5606 5604 5601 5599 5596 5593 5591 5589 5589 5589 5590 5591 5594 5596 5598 5601 5606 5612 5617 5623 5628 5635 5643 5650 5658 5667 5675 5681 5686
5657 5650 5644 5638 5633 5628 5623 5619 5615 5613 5611 5607 5603 5600 5596 5592 5588 5584 5580 5576 5573 5572 5571 5572 5574 5576 5578 5581 5584 5587 5592 5597 5603 5610 5615 5621 5627 5636 5643 5652 5662 5670 5676
5650 5643 5637 5631 5625 5620 5615 5611 5608 5605 5602 5598 5593 5589 5584 5580 5575 5570 5564 5560 5556 5554 5554 5554 5557 5559 5562 5565 5569 5572 5576 5582 5589 5596 5602 5609 5614 5622 5629 5637 5646 5655 5664
5644 5637 5631 5625 5619 5614 5609 5604 5601 5597 5593 5588 5584 5579 5574 5568 5562 5555 5550 5545 5541 5538 5537 5537 5539 5541 5545 5550 5554 5557 5561 5566 5573 5581 5588 5596 5603 5609 5616 5624 5632 5639 5649
5639 5633 5627 5620 5615 5609 5603 5598 5594 5590 5585 5580 5575 5570 5563 5556 5549 5542 5535 5530 5525 5522 5520 5520 5522 5525 5530 5536 5538 5541 5547 5554 5560 5567 5575 5583 5589 5596 5602 5610 5619 5626 5634
5634 5628 5622 5616 5610 5604 5598 5592 5588 5582 5577 5572 5566 5560 5553 5545 5537 5530 5523 5517 5511 5507 5504 5504 5506 5510 5514 5518 5521 5525 5533 5542 5548 5555 5561 5571 5581 5585 5593 5600 5607 5614 5622
5629 5623 5618 5612 5606 5600 5593 5586 5581 5576 5571 5565 5558 5551 5543 5535 5527 5519 5511 5505 5499 5494 5491 5491 5493 5496 5501 5503 5507 5512 5520 5531 5539 5544 5550 5557 5567 5575 5583 5592 5599 5606 5614
5625 5618 5612 5607 5601 5594 5587 5580 5575 5570 5564 5558 5551 5543 5534 5526 5519 5510 5503 5496 5489 5484 5482 5482 5483 5486 5491 5493 5496 5501 5513 5522 5530 5537 5544 5549 5555 5561 5568 5581 5591 5599 5606
5622 5614 5608 5603 5597 5590 5582 5575 5569 5564 5558 5552 5545 5536 5527 5519 5512 5504 5497 5489 5483 5479 5477 5476 5477 5480 5484 5487 5490 5493 5508 5517 5526 5532 5539 5541 5546 5549 5555 5568 5579 5589 5599
5619 5612 5605 5598 5592 5585 5577 5570 5564 5559 5553 5546 5539 5532 5524 5516 5509 5501 5493 5487 5482 5478 5475 5474 5475 5477 5480 5483 5485 5489 5503 5514 5521 5530 5535 5540 5538 5541 5546 5555 5570 5580 5590
5616 5609 5602 5596 5589 5581 5573 5566 5560 5555 5549 5543 5536 5530 5523 5516 5509 5500 5494 5488 5481 5477 5475 5474 5475 5477 5479 5482 5484 5488 5494 5504 5515 5524 5532 5536 5534 5535 5539 5548 5558 5567 5576
5612 5605 5599 5592 5586 5578 5569 5561 5557 5552 5546 5540 5535 5529 5523 5516 5508 5501 5495 5489 5483 5477 5475 5474 5476 5478 5480 5482 5484 5486 5491 5498 5508 5519 5524 5527 5528 5530 5536 5541 5549 5558 5572
5608 5602 5595 5589 5582 5574 5566 5559 5554 5549 5544 5539 5535 5530 5524 5517 5510 5502 5496 5490 5485 5479 5476 5474 5476 5479 5481 5485 5488 5493 5494 5496 5504 5513 5518 5519 5523 5530 5537 5542 5546 5557 5570
5604 5597 5590 5584 5578 5571 5563 5557 5551 5546 5543 5539 5535 5531 5526 5519 5512 5506 5498 5492 5486 5478 5474 5474 5475 5478 5483 5485 5487 5495 5501 5507 5513 5517 5521 5527 5532 5536 5541 5546 5552 5559 5566
5600 5594 5588 5581 5574 5567 5560 5555 5549 5544 5541 5539 5537 5533 5528 5522 5516 5511 5504 5493 5484 5477 5472 5469 5470 5476 5477 5480 5485 5489 5494 5501 5508 5515 5524 5530 5536 5541 5545 5549 5552 5557 5564